Weather History for LKKV - November, 2012

Change the Weather History Date:

Thursday, November 15, 2012

  Actual Average (EDQM) Record (EDQM)
Temperature  
Mean Temperature 28 °F -  
Max Temperature 30 °F 38 °F 55 °F (2006)
Min Temperature 26 °F 31 °F 23 °F (2001)
Degree Days  
Heating Degree Days 37    
Moisture  
Dew Point 28 °F    
Average Humidity 96    
Maximum Humidity 100    
Minimum Humidity 93    
Precipitation  
Precipitation 0.00 in - - ()
Sea Level Pressure  
Sea Level Pressure 30.21 in    
Wind  
Wind Speed 5 mph ()    
Max Wind Speed 8 mph    
Max Gust Speed -    
Visibility 1.9 miles    
Events Fog    
Averages and records for this station are not official NWS values.
T = Trace of Precipitation, MM = Missing Value Source: Averaged Metar Reports

Daily Weather History Graph

Daily Weather History Graph

Search for Another Location

Airport or City:

Trip Planner

Search our weather history database for the weather conditions in past years. The results will help you decide how hot, cold, wet, or windy it might be!

Date:

Astronomy

Nov. 15, 2012 Rise Set
Actual Time 7:22 AM CET 4:23 PM CET
Civil Twilight 6:46 AM CET 4:58 PM CET
Nautical Twilight 6:06 AM CET 5:38 PM CET
Astronomical Twilight 5:28 AM CET 6:16 PM CET
Moon 9:07 AM CET (11/15) 5:48 PM CET (11/15)
Length of Visible Light 10h 12m
Length of Day
9h 00m
Waxing Crescent, 4% of the Moon is Illuminated
Nov 15
Waxing Crescent
Nov 20
First Quarter
Nov 28
Full
Dec 6
Last Quarter
Dec 13
New

Hourly Weather History & Observations

Time (CET) Temp. Windchill Dew Point Humidity Pressure Visibility Wind Dir Wind Speed Gust Speed Precip Events Conditions
12:00 AM 30.2 °F 26.7 °F 28.4 °F 93% 30.30 in 0.3 mi ESE 3.5 mph - N/A Fog Light Freezing Fog
1:00 AM 30.2 °F 25.4 °F 30.2 °F 100% 30.30 in 0.2 mi ESE 4.6 mph - N/A Fog Light Freezing Fog
2:00 AM 30.2 °F 22.6 °F 30.2 °F 100% 30.27 in 0.6 mi East 8.1 mph - N/A Fog Light Freezing Fog
3:00 AM 30.2 °F 24.3 °F 28.4 °F 93% 30.27 in 0.9 mi East 5.8 mph - N/A   Overcast
4:00 AM 28.4 °F 24.6 °F 28.4 °F 100% 30.24 in 1.2 mi ESE 3.5 mph - N/A   Overcast
5:00 AM 28.4 °F 21.2 °F 28.4 °F 100% 30.24 in 1.9 mi ESE 6.9 mph - N/A   Overcast
6:00 AM 28.4 °F 22.2 °F 26.6 °F 93% 30.24 in 1.9 mi ENE 5.8 mph - N/A   Overcast
7:00 AM 28.4 °F 21.2 °F 26.6 °F 93% 30.24 in 1.2 mi East 6.9 mph - N/A   Overcast
7:30 AM 28.4 °F 22.2 °F 26.6 °F 93% 30.24 in 1.9 mi East 5.8 mph - N/A   Overcast
8:00 AM 28.4 °F 22.2 °F 26.6 °F 93% 30.24 in 1.6 mi East 5.8 mph - N/A   Overcast
8:30 AM 28.4 °F 22.2 °F 26.6 °F 93% 30.24 in 0.9 mi East 5.8 mph - N/A   Overcast
9:00 AM 28.4 °F 22.2 °F 28.4 °F 100% 30.24 in 0.7 mi East 5.8 mph - N/A   Overcast
9:30 AM 28.4 °F 24.6 °F 28.4 °F 100% 30.24 in 0.7 mi East 3.5 mph - N/A   Overcast
10:00 AM 28.4 °F 21.2 °F 28.4 °F 100% 30.24 in 0.9 mi ENE 6.9 mph - N/A   Overcast
10:30 AM 28.4 °F 22.2 °F 28.4 °F 100% 30.24 in 1.6 mi ENE 5.8 mph - N/A   Overcast
11:00 AM 30.2 °F 24.3 °F 28.4 °F 93% 30.24 in 1.9 mi East 5.8 mph - N/A   Overcast
11:30 AM 30.2 °F 26.7 °F 28.4 °F 93% 30.21 in 1.9 mi NE 3.5 mph - N/A   Overcast
12:00 PM 30.2 °F 26.7 °F 28.4 °F 93% 30.21 in 3.1 mi ESE 3.5 mph - N/A   Overcast
12:30 PM 30.2 °F 26.7 °F 28.4 °F 93% 30.21 in 3.1 mi ENE 3.5 mph - N/A   Overcast
1:00 PM 30.2 °F 25.4 °F 28.4 °F 93% 30.18 in 3.1 mi ENE 4.6 mph - N/A   Overcast
1:30 PM 30.2 °F 26.7 °F 28.4 °F 93% 30.18 in 3.1 mi NE 3.5 mph - N/A   Overcast
2:00 PM 30.2 °F 25.4 °F 28.4 °F 93% 30.18 in 3.1 mi ENE 4.6 mph - N/A   Overcast
2:30 PM 30.2 °F 26.7 °F 28.4 °F 93% 30.18 in 3.1 mi ENE 3.5 mph - N/A   Overcast
3:00 PM 30.2 °F - 28.4 °F 93% 30.18 in 3.1 mi Variable 2.3 mph - N/A   Overcast
3:30 PM 30.2 °F 26.7 °F 28.4 °F 93% 30.18 in 3.1 mi ESE 3.5 mph - N/A   Overcast
4:00 PM 30.2 °F - 28.4 °F 93% 30.15 in 2.5 mi Variable 2.3 mph - N/A   Overcast
4:30 PM 30.2 °F 26.7 °F 28.4 °F 93% 30.18 in 2.5 mi North 3.5 mph - N/A   Overcast
5:00 PM 30.2 °F - 28.4 °F 93% 30.18 in 2.5 mi Variable 2.3 mph - N/A   Overcast
5:30 PM 28.4 °F 23.3 °F 28.4 °F 100% 30.18 in 3.1 mi East 4.6 mph - N/A   Overcast
6:00 PM 28.4 °F 23.3 °F 28.4 °F 100% 30.18 in 3.1 mi East 4.6 mph - N/A   Overcast
6:30 PM 28.4 °F 23.3 °F 26.6 °F 93% 30.18 in 3.1 mi ESE 4.6 mph - N/A   Overcast
7:00 PM 28.4 °F 20.4 °F 26.6 °F 93% 30.18 in 1.9 mi East 8.1 mph - N/A   Overcast
7:30 PM 28.4 °F 22.2 °F 28.4 °F 100% 30.18 in 1.2 mi East 5.8 mph - N/A   Overcast
8:00 PM 28.4 °F 22.2 °F 28.4 °F 100% 30.15 in 1.2 mi East 5.8 mph - N/A   Overcast
9:00 PM 28.4 °F 22.2 °F 26.6 °F 93% 30.15 in 0.5 mi East 5.8 mph - N/A Fog Light Freezing Fog
9:26 PM 28.4 °F 22.2 °F 26.6 °F 93% 30.15 in 0.9 mi ENE 5.8 mph - N/A   Overcast
10:00 PM 26.6 °F 20.0 °F 26.6 °F 100% 30.15 in 1.2 mi East 5.8 mph - N/A   Overcast
11:00 PM 26.6 °F 20.0 °F 26.6 °F 100% 30.15 in 1.6 mi ESE 5.8 mph - N/A   Overcast